Home > Weather > Ras al-Khaimah > Past weeks

Flag for United Arab Emirates Past Weather in Ras al-Khaimah, Ras al-Khaimah, United Arab Emirates — Yesterday and Last 2 Weeks

Now
88 °F

Sunny.


Feels Like: 91 °F
Forecast: 78 / 102 °F
Wind: 6 mph from West

Location: Ras Al Khaimah International Airport

Current Time: May 27, 2016 at 8:10:18 PM

Latest Report: May 27, 2016 at 7:00 PM


Visibility: 10 mi

Pressure: 29.65 "Hg

Humidity: 52%

Dew Point: 68 °F

Location of Ras al-KhaimahLocation

Past Weather in Ras al-Khaimah — Graph

°F

Ras al-Khaimah Temperature Yesterday

Maximum temperature yesterday: 102 °F (at 2:00 PM)
Minimum temperature yesterday: 81 °F (at 5:00 AM)
Average temperature yesterday: 89 °F

High & Low Weather Summary for the Past Weeks

 TemperatureHumidityPressure
High111 °F (May 18, 12:00 PM)84% (May 24, 12:00 AM)29.80 "Hg (May 24, 12:00 AM)
Low73 °F (May 16, 5:00 AM)7% (May 18, 11:00 AM)29.53 "Hg (May 20, 5:00 PM)
Average90 °F41%29.65 "Hg
* Reported May 12 7:00 PM — May 27 7:00 PM, Ras al-Khaimah, Weather by CustomWeather, © 2016

Note: Actual official high and low records may vary slightly from our data, if they occured in-between our weather recording intervals... More about our weather records

Advertising

Ras al-Khaimah Weather History for the Previous 24 Hours

Scroll right to see more
 ConditionsComfort  
Time TempWeatherWind HumidityBarometerVisibility
7:00 PM
Fri, May 27
88 °FSunny.6 mph52%29.65 "Hg10 mi
6:00 PM91 °FSunny.8 mph46%29.65 "Hg10 mi
5:00 PM93 °FSunny.8 mph44%29.65 "Hg10 mi
4:00 PM93 °FSunny.9 mph44%29.65 "Hg10 mi
3:00 PM95 °FSunny.14 mph44%29.65 "Hg10 mi
2:00 PM95 °FSunny.15 mph41%29.68 "Hg10 mi
1:00 PM100 °FSunny.8 mph24%29.68 "Hg10 mi
12:00 PM97 °FSunny.10 mph25%29.68 "Hg10 mi
11:00 AM93 °FSunny.10 mph30%29.71 "Hg10 mi
10:00 AM90 °FSunny.10 mph38%29.71 "Hg10 mi
9:00 AM86 °FSunny.12 mph49%29.71 "Hg10 mi
8:00 AM82 °FSunny.13 mph58%29.71 "Hg10 mi
7:00 AM84 °FSunny.13 mph51%29.71 "Hg10 mi
6:00 AM77 °FSunny.12 mph65%29.68 "Hg10 mi
5:00 AM77 °FClear.10 mph61%29.68 "Hg10 mi
4:00 AM77 °FClear.8 mph61%29.65 "Hg10 mi
3:00 AM77 °FClear.8 mph65%29.65 "Hg10 mi
2:00 AM79 °FClear.7 mph61%29.65 "Hg10 mi
1:00 AM81 °FClear.8 mph62%29.65 "Hg10 mi
12:00 AM81 °FClear.7 mph62%29.68 "Hg10 mi
11:00 PM
Thu, May 26
82 °FClear.5 mph58%29.68 "Hg10 mi
10:00 PM82 °FPassing clouds.3 mph62%29.68 "HgN/A
9:00 PM84 °FClear.7 mph58%29.68 "Hg10 mi
8:00 PM84 °FClear.8 mph58%29.65 "Hg10 mi
Weather by CustomWeather, © 2016

See weather overviewHow to use our weather pages